Location: Unspecified
(0.0000°N, 0.0000°E)
Time: 18:49:51
(UTC+00:00)

deb r/b Ablestar - Pass Details

Date: 25 April 2026
Orbit: 907 x 1192 km, 66.9° (Epoch: 12 May)

Event Time Altitude Azimuth Distance (km) Brightness Sun altitude
Rises 21:03:16 0° 322° (NW) 4,028 ? -44.7°
Reaches altitude 10° 21:06:18 10° 314° (NW) 3,040 ? -45.4°
Enters shadow 21:09:52 25° 291° (WNW) 2,074 ? -46.3°
